Middletown, OH

5:24 PM EDT on September 20, 2017 (GMT -0400)
Hook Field Municipal

Weather History for KMWO - September, 2012

Change the Weather History Date:

Wednesday, September 12, 2012

  Actual Average (KFFO) Record (KFFO)
Temperature  
Mean Temperature 67 °F -  
Max Temperature 82 °F 76 °F 89 °F (1999)
Min Temperature 52 °F 53 °F 46 °F (2002)
Cooling Degree Days 2    
Growing Degree Days 17 (Base 50)    
Moisture  
Dew Point 59 °F    
Average Humidity 80    
Maximum Humidity 100    
Minimum Humidity 45    
Precipitation  
Precipitation 0.00 in - - ()
Sea Level Pressure  
Sea Level Pressure 30.26 in    
Wind  
Wind Speed 2 mph (SW)    
Max Wind Speed 13 mph    
Max Gust Speed 17 mph    
Visibility 10 miles    
Events      
Averages and records for this station are not official NWS values.
T = Trace of Precipitation, MM = Missing Value Source: NWS Daily Summary

Daily Weather History Graph

Daily Weather History Graph

Search for Another Location

Airport or City:

Trip Planner

Search our weather history database for the weather conditions in past years. The results will help you decide how hot, cold, wet, or windy it might be!

Date:

Astronomy

Sep. 12, 2012 Rise Set
Actual Time 7:16 AM EDT 7:50 PM EDT
Civil Twilight 6:49 AM EDT 8:17 PM EDT
Nautical Twilight 6:17 AM EDT 8:49 PM EDT
Astronomical Twilight 5:44 AM EDT 9:21 PM EDT
Moon 3:33 AM EDT (9/12) 5:36 PM EDT (9/12)
Length of Visible Light 13h 27m
Length of Day
12h 33m
Waning Crescent, 14% of the Moon is Illuminated
Sep 12
Waning Crescent
Sep 15
New
Sep 22
First Quarter
Sep 29
Full
Oct 8
Last Quarter

Hourly Weather History & Observations

Time (EDT) Temp. Heat Index Dew Point Humidity Pressure Visibility Wind Dir Wind Speed Gust Speed Precip Events Conditions
12:35 AM 55.4 °F - 55.4 °F 100% 30.24 in 10.0 mi Calm Calm - N/A   Clear
12:55 AM 55.4 °F - 55.4 °F 100% 30.24 in 10.0 mi Calm Calm - N/A   Clear
1:15 AM 53.2 °F - 53.2 °F 100% 30.24 in 10.0 mi Calm Calm - N/A   Clear
1:35 AM 53.4 °F - 53.4 °F 100% 30.24 in 10.0 mi Calm Calm - N/A   Clear
1:55 AM 52.7 °F - 52.7 °F 100% 30.24 in 10.0 mi Calm Calm - N/A   Clear
2:15 AM 52.7 °F - 52.7 °F 100% 30.24 in 10.0 mi Calm Calm - N/A   Clear
2:35 AM 52.7 °F - 52.7 °F 100% 30.24 in 10.0 mi Calm Calm - N/A   Clear
2:55 AM 52.7 °F - 52.7 °F 100% 30.24 in 10.0 mi Calm Calm - N/A   Clear
3:15 AM 52.7 °F - 52.7 °F 100% 30.24 in 10.0 mi Calm Calm - N/A   Clear
3:35 AM 52.7 °F - 52.7 °F 100% 30.25 in 10.0 mi Calm Calm - N/A   Clear
3:55 AM 52.7 °F - 52.7 °F 100% 30.24 in 10.0 mi Calm Calm - N/A   Clear
4:15 AM 52.7 °F - 52.7 °F 100% 30.25 in 10.0 mi Calm Calm - N/A   Clear
4:35 AM 52.7 °F - 52.7 °F 100% 30.25 in 10.0 mi Calm Calm - N/A   Clear
4:55 AM 52.7 °F - 52.7 °F 100% 30.25 in 10.0 mi Calm Calm - N/A   Clear
5:15 AM 52.7 °F - 52.7 °F 100% 30.25 in 10.0 mi Calm Calm - N/A   Clear
5:35 AM 52.7 °F - 52.7 °F 100% 30.26 in 10.0 mi Calm Calm - N/A   Clear
5:55 AM 52.7 °F - 52.7 °F 100% 30.26 in 10.0 mi Calm Calm - N/A   Clear
6:15 AM 52.7 °F - 52.7 °F 100% 30.26 in 10.0 mi Calm Calm - N/A   Clear
6:35 AM 52.7 °F - 52.7 °F 100% 30.26 in 7.0 mi Calm Calm - N/A   Clear
6:55 AM 52.7 °F - 52.7 °F 100% 30.27 in 10.0 mi Calm Calm - N/A   Clear
7:15 AM 52.7 °F - 52.7 °F 100% 30.28 in 10.0 mi Calm Calm - N/A   Clear
7:35 AM 52.7 °F - 52.7 °F 100% 30.29 in 10.0 mi Calm Calm - N/A   Clear
7:55 AM 52.7 °F - 52.7 °F 100% 30.30 in 10.0 mi Calm Calm - N/A   Clear
8:15 AM 52.7 °F - 52.7 °F 100% 30.30 in 10.0 mi Calm Calm - N/A   Clear
8:35 AM 55.4 °F - 55.4 °F 100% 30.30 in 10.0 mi Calm Calm - N/A   Clear
8:55 AM 57.7 °F - 57.2 °F 98% 30.30 in 10.0 mi Calm Calm - N/A   Clear
9:15 AM 59.9 °F - 57.6 °F 92% 30.30 in 10.0 mi Calm Calm - N/A   Clear
9:35 AM 62.2 °F - 58.6 °F 88% 30.30 in 10.0 mi Calm Calm - N/A   Clear
9:55 AM 66.7 °F - 61.9 °F 84% 30.31 in 10.0 mi Calm Calm - N/A   Clear
10:15 AM 67.6 °F - 60.8 °F 79% 30.31 in 10.0 mi Calm Calm - N/A   Clear
10:35 AM 68.9 °F - 60.3 °F 74% 30.31 in 10.0 mi WSW 3.5 mph - N/A   Clear
10:55 AM 72.7 °F - 62.8 °F 71% 30.31 in 10.0 mi WSW 5.8 mph - N/A   Clear
11:15 AM 72.7 °F - 61.3 °F 67% 30.31 in 10.0 mi SW 4.6 mph - N/A   Clear
11:35 AM 75.2 °F - 63.0 °F 66% 30.31 in 10.0 mi WSW 5.8 mph - N/A   Clear
11:55 AM 75.2 °F - 62.2 °F 64% 30.30 in 10.0 mi SSW 3.5 mph - N/A   Clear
12:15 PM 77.9 °F - 62.8 °F 60% 30.30 in 10.0 mi SW 5.8 mph - N/A   Clear
12:35 PM 77.9 °F - 61.3 °F 57% 30.29 in 10.0 mi SW 8.1 mph - N/A   Clear
12:55 PM 79.0 °F - 60.8 °F 54% 30.29 in 10.0 mi South 4.6 mph - N/A   Clear
1:15 PM 79.2 °F - 60.6 °F 53% 30.28 in 10.0 mi SSW 9.2 mph - N/A   Scattered Clouds
1:35 PM 80.2 °F 81.0 °F 60.3 °F 50% 30.28 in 10.0 mi SW 12.7 mph 17.3 mph N/A   Scattered Clouds
1:55 PM 79.3 °F - 59.7 °F 51% 30.27 in 10.0 mi WSW 11.5 mph - N/A   Scattered Clouds
2:15 PM 80.2 °F 81.0 °F 60.3 °F 50% 30.27 in 10.0 mi WSW 11.5 mph - N/A   Scattered Clouds
2:35 PM 81.1 °F 81.5 °F 59.4 °F 47% 30.25 in 10.0 mi SSW 8.1 mph - N/A   Scattered Clouds
2:55 PM 81.1 °F 81.4 °F 58.6 °F 46% 30.25 in 10.0 mi SW 12.7 mph - N/A   Clear
3:15 PM 81.5 °F 81.6 °F 58.5 °F 45% 30.24 in 10.0 mi South 8.1 mph - N/A   Clear
3:35 PM 81.9 °F 81.9 °F 58.8 °F 45% 30.23 in 10.0 mi SW 10.4 mph - N/A   Clear
3:55 PM 82.6 °F 82.6 °F 59.0 °F 45% 30.23 in 10.0 mi SW 10.4 mph - N/A   Scattered Clouds
4:15 PM 82.2 °F 82.3 °F 58.6 °F 45% 30.23 in 10.0 mi SW 9.2 mph - N/A   Scattered Clouds
4:35 PM 81.7 °F 82.2 °F 60.1 °F 48% 30.23 in 10.0 mi WSW 10.4 mph - N/A   Scattered Clouds
4:55 PM 82.2 °F 82.7 °F 60.4 °F 48% 30.23 in 10.0 mi WSW 9.2 mph - N/A   Scattered Clouds
5:15 PM 79.0 °F - 61.7 °F 55% 30.22 in - WSW 4.6 mph - N/A   Clear
5:55 PM 80.4 °F 81.3 °F 60.8 °F 51% 30.22 in - SW 5.8 mph - N/A   Mostly Cloudy
6:15 PM 80.6 °F 81.2 °F 60.1 °F 49% 30.22 in - South 8.1 mph - N/A   Mostly Cloudy
6:35 PM 80.2 °F 81.1 °F 60.6 °F 51% 30.22 in - South 3.5 mph - N/A   Scattered Clouds
6:55 PM 79.5 °F - 61.9 °F 55% 30.22 in 10.0 mi West 3.5 mph - N/A   Scattered Clouds
7:15 PM 77.9 °F - 63.7 °F 61% 30.22 in 10.0 mi SW 4.6 mph - N/A   Scattered Clouds
7:35 PM 75.2 °F - 63.1 °F 66% 30.22 in 10.0 mi West 3.5 mph - N/A   Scattered Clouds
7:55 PM 72.7 °F - 66.6 °F 81% 30.23 in 10.0 mi WSW 3.5 mph - N/A   Clear
8:15 PM 69.8 °F - 66.6 °F 89% 30.23 in 10.0 mi Calm Calm - N/A   Clear
8:35 PM 67.6 °F - 64.6 °F 90% 30.23 in 10.0 mi Calm Calm - N/A   Clear
8:55 PM 67.6 °F - 65.8 °F 94% 30.24 in 10.0 mi Calm Calm - N/A   Clear
9:15 PM 67.6 °F - 65.1 °F 92% 30.25 in 10.0 mi Calm Calm - N/A   Clear
9:35 PM 67.6 °F - 66.2 °F 95% 30.25 in 10.0 mi Calm Calm - N/A   Clear
9:55 PM 67.6 °F - 66.2 °F 95% 30.25 in 10.0 mi Calm Calm - N/A   Clear
10:15 PM 65.3 °F - 64.0 °F 96% 30.26 in 10.0 mi Calm Calm - N/A   Scattered Clouds
10:35 PM 67.6 °F - 66.2 °F 95% 30.26 in 10.0 mi Calm Calm - N/A   Mostly Cloudy
10:55 PM 65.3 °F - 63.7 °F 94% 30.26 in 10.0 mi Calm Calm - N/A   Scattered Clouds
11:15 PM 65.3 °F - 64.0 °F 96% 30.26 in 10.0 mi Calm Calm - N/A   Scattered Clouds
11:35 PM 65.1 °F - 64.6 °F 98% 30.26 in 10.0 mi Calm Calm - N/A   Mostly Cloudy
11:55 PM 62.6 °F - 62.2 °F 99% 30.27 in 10.0 mi Calm Calm - N/A   Mostly Cloudy